Overview Statistics Trail Chart Weather Telemetry Raw packets
 

This is the latest recevied weather packets stored in our database for station/object K5IDL. If no packets are shown the sender has not sent any weather packets the latest 10 day(s).

<< 12 13 14 15 16 17 18 >>
Time Temp. Humidity Pressure Rain* Wind** Luminosity Snow
1788625689 35° C 51% 1016.1 hPa 0 mm - 545 W/m² -
1788625383 35° C 53% 1016.2 hPa 0 mm - 532 W/m² -
1788625083 36.11° C 52% 1016.1 hPa 0 mm - 524 W/m² -
1788624782 35° C 52% 1016 hPa 0 mm - 520 W/m² -
1788624480 35° C 50% 1016.1 hPa 0 mm - 509 W/m² -
1788624175 34.44° C 54% 1016.1 hPa 0 mm - 496 W/m² -
1788623870 35° C 51% 1016.2 hPa 0 mm - 486 W/m² -
1788623568 35° C 51% 1016.3 hPa 0 mm - 474 W/m² -
1788623263 34.44° C 53% 1016.2 hPa 0 mm - 460 W/m² -
1788622959 35° C 53% 1016.3 hPa 0 mm - 447 W/m² -
1788622654 34.44° C 55% 1016.3 hPa 0 mm - 434 W/m² -
1788622350 34.44° C 55% 1016.1 hPa 0 mm - 420 W/m² -
1788622045 33.89° C 56% 1016 hPa 0 mm - 407 W/m² -
1788621739 33.89° C 57% 1016.2 hPa 0 mm - 392 W/m² -
1788621438 33.89° C 57% 1016 hPa 0 mm - 378 W/m² -
1788621135 33.33° C 60% 1016.1 hPa 0 mm - 363 W/m² -
1788620824 33.33° C 59% 1016 hPa 0 mm - 348 W/m² -
1788620523 32.78° C 61% 1015.9 hPa 0 mm - 334 W/m² -
1788620221 33.33° C 59% 1016 hPa 0 mm - 321 W/m² -
1788619921 32.78° C 61% 1015.9 hPa 0 mm - 306 W/m² -
1788619615 32.78° C 62% 1015.9 hPa 0 mm - 291 W/m² -
1788619315 33.33° C 61% 1015.9 hPa 0 mm - 276 W/m² -
1788619008 32.22° C 61% 1015.8 hPa 0 mm - 261 W/m² -
1788618703 32.22° C 63% 1015.8 hPa 0 mm - 247 W/m² -
1788618402 32.22° C 62% 1015.7 hPa 0 mm - 232 W/m² -

* Rain latest hour (hover to see other rain measurements)
** Current wind speed in m/s (hover to see current wind gust speed)